Stations météo

réclame
Mon MeteoGroup
Lerwick, Grande-Bretagne (3005): Température de l'air & dewpoint: 11.10.2018 20:00:00 - 17.10.2018 20:00:00 (BST)Lerwick, Grande-Bretagne (3005): Température de l'air -20cm & Température de l'air -100cm: 11.10.2018 20:00:00 - 17.10.2018 20:00:00 (BST)Lerwick, Grande-Bretagne (3005): Vitesse du vent & gusts: 11.10.2018 20:00:00 - 17.10.2018 20:00:00 (BST)Lerwick, Grande-Bretagne (3005): Direction du vent: 11.10.2018 20:00:00 - 17.10.2018 20:00:00 (BST)Lerwick, Grande-Bretagne (3005): reduced air pressure: 11.10.2018 20:00:00 - 17.10.2018 20:00:00 (BST)Lerwick, Grande-Bretagne (3005): visibility: 11.10.2018 20:00:00 - 17.10.2018 20:00:00 (BST)Lerwick, Grande-Bretagne (3005): Ensoleillement: 11.10.2018 20:00:00 - 17.10.2018 20:00:00 (BST)Lerwick, Grande-Bretagne (3005): Quantités de précipitations: 11.10.2018 20:00:00 - 17.10.2018 20:00:00 (BST)
Date & Time tt [°C] td [°C] tt -20cm [°C] tt -100cm [°C] ff [km/h] ff [knt] fx [km/h] fx [knt] dd ppp [hPa] vv [km] sd [min] rr [mm]
17.10.2018 20:00:00 7,7 4,6 - - 37 20 59 32 W 1016,0 17 0 0,4
17.10.2018 19:00:00 8,4 4,9 - - 29 16 65 35 W 1015,1 16 0 0,0
17.10.2018 18:00:00 8,9 4,4 - - 41 22 57 31 WSW 1014,1 18 6 0,0
17.10.2018 17:00:00 9,4 4,9 - - 44 24 61 33 WSW 1013,3 21 30 0,0
17.10.2018 16:00:00 9,6 5,9 - - 39 21 61 33 WSW 1012,5 12 42 0,0
17.10.2018 15:00:00 10,2 4,8 - - 42 23 65 35 WSW 1011,9 13 60 0,0
17.10.2018 14:00:00 10,0 4,4 - - 44 24 61 33 WSW 1011,1 22 48 0,2
17.10.2018 13:00:00 8,1 6,3 - - 48 26 68 37 WSW 1010,8 8 36 0,4
17.10.2018 12:00:00 10,1 5,2 - - 42 23 70 38 WSW 1009,9 11 30 0,0
17.10.2018 11:00:00 9,6 4,4 - - 42 23 57 31 WSW 1009,2 17 18 0,0
17.10.2018 10:00:00 9,1 4,7 9,5 9,9 34 18 61 33 WSW 1008,4 18 36 0,2
17.10.2018 09:00:00 9,6 4,6 - - 42 23 67 36 WSW 1007,2 16 12 0,0
17.10.2018 08:00:00 8,8 5,0 - - 39 21 59 32 WSW 1006,5 16 0 0,0
17.10.2018 07:00:00 9,1 5,4 - - 44 24 59 32 SW 1005,5 14 0 0,0
17.10.2018 06:00:00 8,8 6,5 - - 39 21 54 29 WSW 1005,1 8 0 0,2
17.10.2018 05:00:00 9,3 7,2 - - 35 19 52 28 SW 1004,8 14 0 0,0
17.10.2018 04:00:00 9,7 7,7 - - 37 20 48 26 SW 1004,3 16 0 0,0
17.10.2018 03:00:00 9,8 7,6 - - 37 20 54 29 SW 1003,8 14 0 0,0
17.10.2018 02:00:00 10,2 7,6 - - 39 21 50 27 SW 1003,8 14 0 0,0
17.10.2018 01:00:00 10,2 8,9 - - 35 19 50 27 SW 1003,6 12 - 0,0
17.10.2018 00:00:00 10,4 8,8 - - 39 21 55 30 SW 1003,1 16 0 0,0
16.10.2018 23:00:00 10,9 9,7 - - 41 22 63 34 SW 1003,0 5 0 0,0
16.10.2018 22:00:00 11,7 9,0 - - 42 23 61 33 SW 1002,2 12 0 0,0
16.10.2018 21:00:00 11,8 8,6 - - 41 22 57 31 SSW 1002,1 21 0 0,0
16.10.2018 20:00:00 11,8 8,5 - - 48 26 59 32 SSW 1002,0 17 0 0,0
16.10.2018 19:00:00 11,8 7,5 - - 48 26 68 37 SSW 1001,5 30 0 0,0
16.10.2018 18:00:00 10,8 8,6 - - 29 16 55 30 SSW 1001,7 12 0 0,0
16.10.2018 17:00:00 10,7 9,1 - - 42 23 65 35 SSW 1001,7 9 0 0,0
16.10.2018 16:00:00 10,7 9,5 - - 48 26 70 38 S 1001,7 9 0 0,0
16.10.2018 15:00:00 10,8 10,0 - - 54 29 72 39 S 1002,2 9 0 0,0
16.10.2018 14:00:00 10,4 10,0 - - 48 26 68 37 S 1002,8 6 0 0,8
16.10.2018 13:00:00 10,1 9,7 - - 52 28 70 38 S 1004,0 2,8 0 0,2
16.10.2018 12:00:00 10,5 8,8 - - 52 28 72 39 S 1005,1 11 0 0,0
16.10.2018 11:00:00 10,4 7,9 - - 54 29 76 41 S 1006,1 13 0 0,0
16.10.2018 10:00:00 10,1 7,6 9,5 9,9 54 29 74 40 S 1006,8 14 0 0,0
16.10.2018 09:00:00 10,0 7,6 - - 50 27 63 34 S 1007,2 14 0 0,0
16.10.2018 08:00:00 9,8 7,2 - - 42 23 55 30 S 1007,9 15 0 0,0
16.10.2018 07:00:00 9,9 7,5 - - 39 21 54 29 S 1008,6 17 0 0,0
16.10.2018 06:00:00 10,0 7,7 - - 41 22 55 30 S 1009,8 17 0 0,0
16.10.2018 05:00:00 10,0 8,8 - - 34 18 46 25 S 1010,5 15 0 0,0
16.10.2018 04:00:00 9,9 8,2 - - 29 16 - - S 1011,0 22 0 0,0
16.10.2018 03:00:00 9,8 8,3 - - 28 15 - - S 1011,8 22 0 0,0
16.10.2018 02:00:00 9,9 8,7 - - 26 14 - - S 1012,3 20 0 0,0
16.10.2018 01:00:00 8,1 7,2 - - 13 7 - - S 1012,8 20 - 0,0
16.10.2018 00:00:00 7,6 6,3 - - 11 6 - - SSW 1013,3 20 0 0,0
15.10.2018 23:00:00 8,0 6,4 - - 13 7 - - SW 1013,4 26 0 0,0
15.10.2018 22:00:00 8,5 7,2 - - 18 10 - - WSW 1013,5 24 0 0,0
15.10.2018 21:00:00 9,0 7,7 - - 18 10 - - SW 1013,5 16 0 0,0
15.10.2018 20:00:00 9,2 8,0 - - 24 13 - - SW 1013,2 16 0 0,0
15.10.2018 19:00:00 10,2 7,5 - - 29 16 46 25 SSW 1012,9 25 0 0,0
15.10.2018 18:00:00 9,2 7,5 - - 21 11 - - SSW 1012,4 18 24 0,0
15.10.2018 17:00:00 10,3 8,0 - - 28 15 - - SSW 1012,2 22 54 0,0
15.10.2018 16:00:00 11,1 8,3 - - 35 19 48 26 SW 1012,0 30 48 0,0
15.10.2018 15:00:00 11,2 8,2 - - 37 20 52 28 SW 1011,7 22 54 0,0
15.10.2018 14:00:00 10,9 8,2 - - 35 19 54 29 SW 1011,7 22 30 0,0
15.10.2018 13:00:00 11,4 8,1 - - 41 22 52 28 SW 1011,6 24 54 0,0
15.10.2018 12:00:00 11,3 8,0 - - 39 21 48 26 SW 1011,2 18 36 0,0
15.10.2018 11:00:00 10,5 7,5 - - 26 14 - - SW 1011,2 35 0 0,0
15.10.2018 10:00:00 9,7 7,3 9,7 9,9 24 13 - - SSW 1011,1 30 0 0,0
15.10.2018 09:00:00 9,2 7,4 - - 18 10 - - SSW 1010,8 20 0 0,0
15.10.2018 08:00:00 8,5 6,6 - - 21 11 - - SSW 1010,6 21 0 0,0
15.10.2018 07:00:00 8,5 6,4 - - 18 10 - - SSW 1010,3 26 0 0,0
15.10.2018 06:00:00 8,5 6,2 - - 24 13 - - SW 1010,0 35 0 0,0
15.10.2018 05:00:00 9,0 7,5 - - 29 16 - - SW 1010,1 30 0 1,0
15.10.2018 04:00:00 8,1 6,7 - - 22 12 48 26 SW 1010,4 7 0 0,6
15.10.2018 03:00:00 8,3 6,6 - - 18 10 - - SSW 1010,3 35 0 0,0
15.10.2018 02:00:00 7,2 5,8 - - 13 7 - - SSW 1010,2 30 0 0,0
15.10.2018 01:00:00 7,0 5,7 - - 11 6 - - SSW 1010,2 19 - 0,0
15.10.2018 00:00:00 7,0 5,6 - - 13 7 - - S 1010,1 23 0 0,0
14.10.2018 23:00:00 6,2 4,7 - - 11 6 - - SW 1010,0 45 0 0,0
14.10.2018 22:00:00 6,3 4,8 - - 15 8 - - SW 1009,7 22 0 0,0
14.10.2018 21:00:00 6,6 5,6 - - 15 8 - - SW 1009,0 16 0 0,0
14.10.2018 20:00:00 7,2 6,1 - - 15 8 - - SW 1008,5 23 0 0,0
14.10.2018 19:00:00 7,5 6,4 - - 16 9 - - SW 1008,0 23 0 0,0
14.10.2018 18:00:00 8,2 6,1 - - 16 9 - - WSW 1007,5 30 30 0,2
14.10.2018 17:00:00 9,6 7,7 - - 21 11 - - SW 1006,8 29 0 0,0
14.10.2018 16:00:00 9,5 7,3 - - 21 11 - - WSW 1006,6 30 0 0,0
14.10.2018 15:00:00 9,3 7,4 - - 22 12 - - WSW 1006,4 24 0 0,0
14.10.2018 14:00:00 9,3 6,9 - - 24 13 - - WSW 1005,9 30 0 0,0
14.10.2018 13:00:00 9,5 6,6 - - 18 10 - - WSW 1005,7 40 0 0,0
14.10.2018 12:00:00 8,9 7,0 - - 16 9 - - SW 1005,3 28 0 0,0
14.10.2018 11:00:00 8,8 6,7 - - 15 8 - - WSW 1004,2 30 0 0,0
14.10.2018 10:00:00 8,1 6,6 10,0 9,9 15 8 - - W 1003,4 35 0 0,0
14.10.2018 09:00:00 7,8 6,2 - - 15 8 - - WNW 1002,9 30 0 0,0
14.10.2018 08:00:00 6,9 5,8 - - 16 9 - - WNW 1001,4 40 0 0,0
14.10.2018 07:00:00 7,0 6,4 - - 22 12 - - NW 999,6 8 0 0,2
14.10.2018 06:00:00 6,9 6,5 - - 34 18 46 25 NNW 997,7 7 0 0,2
14.10.2018 05:00:00 6,9 6,6 - - 37 20 59 32 NNW 996,1 5 0 0,2
14.10.2018 04:00:00 7,1 6,8 - - 44 24 57 31 NNW 994,6 6 0 1,0
14.10.2018 03:00:00 7,7 7,4 - - 39 21 57 31 N 993,9 6 0 1,0
14.10.2018 02:00:00 8,5 8,3 - - 42 23 59 32 N 992,9 4,2 0 2,0
14.10.2018 01:00:00 9,0 8,9 - - 41 22 59 32 NNE 993,6 3,8 - 1,6
14.10.2018 00:00:00 8,9 8,8 - - 44 24 55 30 NNE 993,7 4,2 0 1,0
13.10.2018 23:00:00 8,9 8,8 - - 34 18 46 25 NE 995,7 5 0 1,6
13.10.2018 22:00:00 9,0 8,9 - - 26 14 - - NE 997,2 5 0 1,6
13.10.2018 21:00:00 9,3 9,0 - - 21 11 - - ENE 998,0 5 0 0,2
13.10.2018 20:00:00 9,4 9,2 - - 18 10 - - E 998,5 6 0 0,8
13.10.2018 19:00:00 9,4 9,2 - - 13 7 - - E 999,2 8 0 1,6
13.10.2018 18:00:00 9,3 8,9 - - 9 5 - - E 999,7 7 0 1,4
13.10.2018 17:00:00 9,7 9,0 - - 8 4 - - SE 1000,2 5 0 0,4
13.10.2018 16:00:00 10,7 10,4 - - 13 7 - - SSE 1001,0 4,4 0 0,0
13.10.2018 15:00:00 11,0 10,5 - - 9 5 - - SE 1001,6 5 0 0,0
13.10.2018 14:00:00 11,4 9,8 - - 11 6 - - S 1002,1 7 0 0,0
13.10.2018 13:00:00 11,4 9,2 - - 21 11 - - SSW 1002,6 12 0 0,0
13.10.2018 12:00:00 11,6 9,1 - - 28 15 - - SSW 1002,4 14 0 0,0
13.10.2018 11:00:00 11,4 9,3 - - 26 14 - - SSW 1002,2 11 0 0,0
13.10.2018 10:00:00 11,1 9,3 10,0 9,9 31 17 54 29 SSW 1001,5 13 0 0,0
13.10.2018 09:00:00 11,0 9,2 - - 39 21 59 32 SW 1000,6 14 0 0,0
13.10.2018 08:00:00 11,2 9,0 - - 44 24 68 37 SW 999,0 14 0 0,0
13.10.2018 07:00:00 11,3 9,2 - - 54 29 68 37 SW 997,2 13 0 0,0
13.10.2018 06:00:00 11,4 9,3 - - 55 30 78 42 SW 996,2 12 0 0,0
13.10.2018 05:00:00 11,7 9,6 - - 65 35 83 45 SW 994,4 13 0 0,0
13.10.2018 04:00:00 11,9 9,9 - - 65 35 94 51 SSW 993,2 11 0 0,0
13.10.2018 03:00:00 12,3 10,0 - - 72 39 93 50 SSW 991,7 12 0 0,0
13.10.2018 02:00:00 12,0 10,2 - - 63 34 83 45 SSW 990,6 8 0 0,0
13.10.2018 01:00:00 11,7 10,5 - - 59 32 80 43 S 989,7 8 - 0,0
13.10.2018 00:00:00 11,6 10,9 - - 55 30 68 37 S 989,1 8 0 0,0
12.10.2018 23:00:00 11,5 10,9 - - 48 26 72 39 S 988,7 6 0 0,0
12.10.2018 22:00:00 12,0 11,3 - - 52 28 68 37 S 987,7 7 0 0,0
12.10.2018 21:00:00 11,8 11,7 - - 46 25 65 35 S 986,9 3,4 0 1,0
12.10.2018 20:00:00 11,1 11,1 - - 34 18 52 28 S 987,8 1,3 0 3,4
12.10.2018 19:00:00 11,5 11,4 - - 39 21 61 33 SSE 989,3 2,3 0 1,4
12.10.2018 18:00:00 11,5 11,4 - - 41 22 78 42 SSE 991,0 2,7 0 1,0
12.10.2018 17:00:00 11,9 11,4 - - 44 24 65 35 S 992,6 4,6 0 0,0
12.10.2018 16:00:00 12,0 11,2 - - 46 25 65 35 S 992,9 5 0 0,0
12.10.2018 15:00:00 12,0 11,3 - - 50 27 74 40 S 993,2 5 0 0,0
12.10.2018 14:00:00 12,0 11,2 - - 59 32 87 47 S 992,8 8 0 0,0
12.10.2018 13:00:00 11,8 10,9 - - 63 34 87 47 S 992,6 8 0 0,0
12.10.2018 12:00:00 11,4 10,9 - - 50 27 68 37 SSE 992,8 5 0 0,2
12.10.2018 11:00:00 11,4 11,0 - - 46 25 65 35 SSE 993,4 6 0 0,0
12.10.2018 10:00:00 11,4 11,2 9,7 9,9 46 25 63 34 SSE 995,2 4,9 0 0,0
12.10.2018 09:00:00 11,2 11,2 - - 41 22 57 31 SSE 996,0 0,1 0 0,0
12.10.2018 08:00:00 11,3 11,3 - - 39 21 57 31 SSE 996,5 0,2 0 0,0
12.10.2018 07:00:00 11,2 11,2 - - 29 16 - - SSE 997,2 0,4 0 0,0
12.10.2018 06:00:00 11,2 11,2 - - 28 15 - - SSE 998,3 0,1 0 0,0
12.10.2018 05:00:00 11,4 11,4 - - 24 13 - - SSE 998,9 0,1 0 0,0
12.10.2018 04:00:00 11,5 11,4 - - 29 16 - - SSE 999,4 0,2 0 0,0
12.10.2018 03:00:00 11,6 11,5 - - 28 15 - - SSE 999,6 1,7 0 0,0
12.10.2018 02:00:00 11,6 11,5 - - 31 17 48 26 SSE 1000,4 1,1 0 0,0
12.10.2018 01:00:00 11,5 11,4 - - 31 17 48 26 S 1000,7 1,2 - 0,0
12.10.2018 00:00:00 11,4 11,4 - - 35 19 54 29 S 1001,0 0,2 0 0,0
11.10.2018 23:00:00 11,7 11,5 - - 39 21 50 27 S 1001,1 4,0 0 0,0
11.10.2018 22:00:00 11,7 11,5 - - 41 22 55 30 S 1000,9 3,8 0 0,0
11.10.2018 21:00:00 11,5 11,5 - - 44 24 63 34 S 1000,5 0,5 0 0,0
11.10.2018 20:00:00 11,5 11,4 - - 42 23 63 34 SSE 1000,0 0,3 0 0,2

tt = Température de l'air
td = dewpoint
tt -20cm = Température de l'air -20cm
tt -100cm = Température de l'air -100cm
ff = Vitesse du vent
fx = gusts
dd = Direction du vent
ppp = reduced air pressure
vv = visibility
sd = Ensoleillement
rr = Quantités de précipitations

stations d'obs. à proximité